RH
19 23 19 15 17 17 16 13 12 10 8 13 15 14 11 22 30 34 36 40 42 45 48 54 61 63 59 55 62 66 57 38 20 19 25 73 83 72 84 83 85 83 89 81
20 22 18 18 16 16 16 17 16 12 11 13 14 14 19 31 34 36 43 48 52 56 61 62 64 70 78 71 79 81 65 53 46 21 24 56 75 82 73 91 82 74 92 79
19 17 20 21 17 16 16 18 17 17 15 14 15 16 34 31 29 38 44 53 61 65 68 70 70 74 86 93 88 92 75 68 54 29 23 23 68 77 80 80 94 82 78 74
19 18 21 18 18 16 22 14 19 20 22 28 18 30 18 30 34 39 46 55 66 72 74 77 79 82 86 98 92 86 73 72 60 33 26 26 26 88 77 73 95 94 82 67
25 25 26 28 24 21 23 19 23 24 27 32 28 26 30 34 46 49 50 58 70 76 81 87 88 92 90 97 92 98 80 61 61 53 30 26 28 33 85 70 86 86 91 90
19 17 18 19 20 21 21 27 28 28 32 48 29 25 53 49 54 56 57 66 76 80 87 93 98 98 98 90 82 96 98 70 63 58 46 36 31 28 53 83 78 84 93 96
19 17 16 21 26 21 28 32 38 34 50 51 24 29 53 46 49 58 64 73 83 86 94 93 92 96 98 98 82 88 100 99 96 89 73 39 34 43 30 87 73 84 94 100
21 29 22 23 29 29 34 33 40 53 39 38 23 45 66 44 48 60 68 77 86 90 97 96 97 97 98 100 100 93 93 97 98 98 99 73 63 47 49 82 71 85 84 91
18 20 20 24 17 27 39 45 36 42 37 48 32 62 51 49 54 62 76 84 96 96 96 97 98 99 99 100 99 100 93 96 100 98 100 97 88 78 85 90 87 85 81 92
21 26 19 15 18 22 30 25 38 48 60 46 36 71 75 76 72 72 89 95 95 95 94 98 100 97 99 99 100 99 94 91 99 99 100 100 100 92 82 96 89 100 86 96
22 28 24 20 24 24 38 40 43 36 41 48 55 79 83 75 75 78 76 98 98 94 96 99 100 99 100 94 93 98 92 95 97 100 100 100 99 99 90 96 95 95 100 99
28 29 35 26 22 21 24 33 33 55 46 58 71 95 67 65 69 70 78 87 94 97 97 100 100 94 95 94 93 96 93 96 97 99 100 100 100 88 76 78 100 100 99 100
34 42 50 30 27 24 31 38 33 38 44 63 86 93 76 77 73 74 80 90 89 97 93 96 96 96 96 94 96 97 96 97 97 98 100 99 98 98 82 85 99 90 79 100
35 41 48 60 63 48 57 44 39 44 62 76 90 96 94 100 100 100 97 90 88 91 93 94 94 98 99 98 96 97 96 97 97 97 97 100 93 100 93 97 95 95 87 90
46 48 37 30 25 40 45 40 49 55 56 70 90 82 86 94 90 66 65 71 79 82 88 92 94 99 100 100 96 94 100 96 97 97 99 100 98 99 92 86 85 90 83 89
42 54 34 36 29 63 56 43 39 48 54 62 85 87 64 64 57 54 58 62 69 74 81 86 93 98 99 100 100 100 95 94 99 95 100 99 98 95 98 98 88 80 78 93
46 53 41 50 44 72 80 77 63 61 61 67 72 73 64 59 55 58 62 62 65 70 78 84 91 100 100 100 100 100 100 99 99 85 91 88 88 91 93 94 93 94 95 99
43 43 43 66 64 73 86 60 61 89 78 86 72 76 65 54 61 63 66 66 68 73 80 86 91 99 100 100 100 100 100 100 98 100 99 87 92 86 91 87 93 95 99 84
38 41 56 58 55 74 57 56 62 64 74 57 59 57 54 49 64 87 70 68 71 78 86 90 93 99 100 100 100 100 93 100 100 100 100 100 98 89 81 87 90 85 96 93
35 42 52 50 52 62 62 41 46 50 85 55 57 62 62 55 65 78 75 70 76 86 95 96 96 100 100 100 100 100 100 98 100 100 100 100 100 95 85 87 81 84 92 89
62 57 63 56 50 68 43 46 54 74 87 62 65 71 68 70 78 76 73 72 86 97 100 100 100 100 100 100 100 100 100 100 100 100 100 100 100 99 98 88 85 78 75 72
57 58 60 53 49 81 43 54 66 83 68 66 72 78 76 76 71 70 70 77 90 100 100 100 100 100 100 100 100 100 100 100 100 100 100 100 100 100 100 94 92 82 76 74
67 50 67 65 80 59 66 69 68 65 70 69 69 69 71 67 64 66 69 77 97 96 99 100 100 100 100 100 100 100 100 100 100 100 100 100 94 94 100 98 84 80 78 79
54 46 69 61 55 55 63 66 68 71 69 66 65 64 64 67 65 65 66 71 91 88 97 93 99 100 100 100 100 100 100 100 100 100 100 99 100 100 100 100 92 88 89 90
43 48 69 66 58 59 61 71 75 78 75 69 68 68 66 64 65 65 68 71 76 83 94 89 95 100 100 100 99 98 100 100 100 100 100 100 100 100 100 98 100 96 97 95
44 68 73 81 63 65 69 79 80 79 76 75 72 70 71 68 67 67 71 75 75 79 84 98 98 100 100 100 86 83 100 100 100 100 100 100 100 99 99 99 96 96 97 96
Wind_Speed
17 7 11 13 4 8 8 12 15 14 13 11 12 14 14 15 22 21 21 25 27 28 27 30 34 38 37 31 27 27 29 26 40 38 32 41 43 47 42 47 45 41 43 43
8 15 9 4 4 6 9 13 15 13 11 10 15 16 5 17 17 19 24 26 29 34 35 36 37 38 40 37 30 36 33 32 34 43 42 34 46 48 53 44 53 53 41 43
14 10 3 5 9 10 12 11 12 13 14 15 17 14 19 15 18 21 25 26 26 28 34 36 37 38 42 40 33 37 34 27 31 40 44 47 41 47 45 49 46 46 52 47
10 2 5 6 10 10 11 7 6 12 11 11 13 6 14 13 16 18 27 28 32 35 35 34 36 37 37 39 38 38 35 29 19 37 42 44 41 45 49 54 48 43 49 51
5 7 6 7 10 2 7 8 10 14 14 15 17 9 7 12 17 19 25 30 32 31 32 35 36 37 35 38 35 38 36 30 23 21 34 42 44 42 48 54 48 46 48 50
15 5 4 10 2 7 10 11 15 16 13 9 16 11 12 9 16 16 21 25 29 31 32 34 36 36 34 35 33 32 33 30 28 26 27 37 45 45 45 51 52 45 46 49
15 14 7 5 7 9 7 11 6 3 6 8 8 7 8 13 14 15 19 25 28 28 33 37 40 40 36 34 32 28 25 26 26 31 31 35 44 39 48 57 58 49 43 48
12 7 14 11 4 5 4 6 5 5 6 11 19 5 6 11 15 19 20 21 24 29 33 34 36 37 37 34 32 28 26 20 19 21 23 31 33 44 51 51 55 50 53 49
8 5 12 7 3 3 3 5 7 7 14 11 6 9 9 14 15 19 23 25 26 30 32 34 34 34 35 34 30 30 24 22 25 20 17 13 12 18 29 30 49 48 50 48
2 6 10 10 4 10 8 5 4 4 4 8 2 8 4 15 16 17 18 22 25 29 33 33 34 37 37 37 37 32 25 24 26 18 18 13 5 7 20 7 24 17 53 43
5 4 8 6 7 8 9 5 4 6 6 6 7 4 3 9 11 13 16 19 24 29 33 32 35 38 38 38 42 40 38 28 27 17 22 20 19 17 15 15 30 8 40 44
4 5 6 11 6 3 3 2 2 2 7 7 4 3 4 8 11 14 16 20 22 24 30 34 34 39 41 41 41 42 39 36 29 25 24 22 21 22 21 16 14 14 23 33
7 5 5 4 6 7 4 4 3 6 7 10 6 4 5 9 11 14 15 18 22 23 30 33 37 39 39 39 38 39 38 35 36 35 32 31 32 27 25 20 19 23 19 17
2 3 3 2 3 4 4 4 3 4 5 6 1 3 5 5 6 10 10 15 20 22 26 30 35 37 36 37 38 38 39 35 38 38 37 37 37 32 26 20 28 24 19 18
2 3 6 6 4 9 2 5 5 2 2 3 2 4 6 2 4 9 15 18 19 23 26 28 30 33 36 37 37 38 38 36 33 39 40 42 36 36 30 24 24 23 21 14
5 2 2 6 10 10 5 7 4 5 3 2 1 6 7 6 5 11 16 19 20 22 23 25 26 29 32 35 35 36 37 38 37 36 37 36 36 37 30 31 26 28 22 16
7 4 4 9 13 7 3 2 1 8 5 4 1 4 7 6 6 10 15 17 19 21 23 24 25 26 28 30 31 32 32 34 37 37 36 36 35 32 31 28 32 30 21 13
7 6 1 4 10 3 2 4 4 9 4 2 2 3 7 7 2 7 13 16 18 20 21 22 25 26 28 29 28 30 31 33 36 36 36 32 31 30 30 32 29 28 25 26
6 5 3 3 7 5 6 9 6 6 6 5 2 3 8 10 9 9 13 14 16 18 19 20 21 23 27 30 28 28 31 34 35 36 35 33 31 32 32 32 29 29 25 26
8 5 5 5 8 3 7 7 4 6 4 4 0 3 7 12 4 6 14 14 14 16 17 20 19 22 27 30 28 29 31 32 34 33 32 32 32 33 34 31 33 28 25 27
6 5 8 7 4 5 6 9 10 4 4 5 4 4 5 5 5 8 10 11 12 14 16 18 18 22 26 28 29 29 31 32 30 28 28 29 30 31 30 30 31 29 30 32
8 6 5 7 6 5 5 10 4 8 8 7 6 4 4 3 3 5 8 9 12 15 16 18 18 20 24 26 28 29 30 28 27 27 28 27 28 28 29 31 31 34 35 34
2 1 1 4 4 11 10 16 13 9 11 7 6 4 4 3 5 5 7 8 10 16 17 18 18 20 23 24 25 26 27 28 26 26 27 26 28 30 30 32 35 35 36 36
4 2 4 3 9 12 13 12 12 11 10 8 6 5 4 4 4 5 6 8 10 15 16 19 18 20 22 22 23 23 25 26 26 26 27 28 29 28 29 30 36 36 37 37
3 9 6 6 10 11 8 10 10 11 9 9 8 7 6 4 5 5 6 7 8 11 12 16 17 18 20 20 22 23 25 27 26 25 25 27 26 26 26 25 27 31 33 34
7 5 5 2 15 4 16 12 11 10 8 7 6 5 5 6 5 5 6 6 7 9 10 12 15 15 17 19 21 21 22 25 25 25 25 26 26 26 24 24 24 23 25 28
Wind_Direction
223 254 255 267 13 346 314 294 288 289 296 326 295 299 304 62 58 42 25 14 5 357 346 340 337 330 320 300 299 306 298 280 274 267 267 244 234 230 226 219 213 211 221 219
240 247 256 350 316 307 283 279 278 286 307 314 306 300 36 83 67 46 25 11 0 352 345 344 339 332 323 318 308 317 295 277 275 261 260 256 242 232 229 223 222 214 221 220
245 282 90 285 279 264 262 272 291 307 313 293 283 284 125 115 59 34 23 11 2 354 348 340 336 332 327 327 317 311 298 295 274 260 259 255 254 240 235 227 221 223 218 223
252 232 261 247 262 272 275 301 322 291 296 291 323 281 291 56 36 24 14 5 1 358 349 340 335 331 330 325 316 302 300 303 281 260 253 251 253 238 231 227 219 217 213 224
240 202 223 248 255 303 267 323 287 284 283 282 271 256 78 53 23 15 8 4 0 355 347 342 338 333 329 327 328 316 305 300 280 276 254 255 253 253 237 233 223 211 214 215
248 157 257 236 241 246 280 285 272 251 246 266 266 240 46 24 23 12 8 7 359 351 348 347 340 338 333 330 333 328 314 302 298 279 258 246 255 248 248 230 222 211 205 209
219 223 196 237 244 227 233 277 300 211 202 238 134 286 59 41 39 24 18 10 359 354 354 350 347 342 342 342 343 340 331 316 319 303 291 255 251 257 247 233 215 210 206 204
194 177 188 171 203 346 314 312 292 304 309 314 317 112 90 51 38 31 17 12 0 2 357 350 349 351 348 347 349 347 350 355 354 351 314 272 269 261 253 245 214 208 207 211
226 166 118 152 171 219 137 242 324 287 276 264 229 98 120 28 18 14 12 5 1 2 353 351 352 357 356 2 3 1 3 13 16 8 349 282 288 261 260 249 217 213 203 201
119 182 176 147 226 237 234 341 274 224 278 298 125 141 8 354 355 359 11 2 355 358 351 351 355 6 8 15 14 9 16 12 8 16 14 52 57 165 216 263 218 260 188 188
176 241 155 146 218 250 197 208 259 305 281 279 299 83 20 355 1 360 355 0 352 355 349 351 357 9 11 17 22 19 25 17 5 26 37 44 45 86 106 88 222 309 144 175
163 217 196 212 148 337 339 88 338 312 297 327 268 144 54 19 10 0 353 355 352 350 350 354 2 9 13 18 19 18 21 17 23 25 35 50 51 58 80 68 14 144 96 148
166 222 176 201 191 190 240 148 247 284 270 268 284 109 76 22 14 355 359 360 356 351 355 358 4 6 8 14 15 15 17 17 27 25 43 54 50 52 56 42 36 73 88 58
29 239 221 7 87 87 155 215 302 301 267 317 59 138 17 24 351 334 4 9 4 358 357 2 3 2 5 10 10 15 17 22 23 34 39 46 47 44 59 27 29 50 67 26
253 224 212 259 241 154 176 237 108 284 312 303 55 83 358 15 316 19 15 8 5 4 3 3 3 0 2 10 13 13 14 18 21 30 36 41 46 44 48 36 39 52 55 45
230 274 223 230 231 126 180 210 188 135 7 76 351 118 26 335 329 13 6 3 6 5 5 2 3 2 3 7 8 10 14 18 25 30 35 38 36 44 37 44 43 49 55 42
179 238 191 244 125 97 288 230 39 115 73 315 331 31 345 348 6 17 6 3 1 2 3 2 3 4 6 9 9 11 11 17 29 32 31 32 31 34 37 44 46 47 43 43
203 217 229 138 131 215 104 166 105 114 136 353 82 339 300 317 123 35 16 4 2 0 0 2 2 358 4 12 15 15 21 24 27 32 33 33 34 33 34 41 43 50 31 38
245 190 231 242 209 106 175 174 167 176 183 198 246 304 323 318 162 59 19 9 5 2 359 0 360 358 3 12 16 15 20 23 26 27 30 30 31 32 35 38 34 41 35 33
196 257 241 209 250 220 112 110 101 125 211 157 356 340 335 332 306 36 4 4 5 2 0 0 1 358 6 11 15 17 22 20 22 23 22 22 29 33 34 34 35 42 45 43
188 193 240 249 246 102 117 124 141 195 104 130 84 49 15 40 21 350 356 5 16 2 0 2 6 5 6 10 11 16 20 18 18 19 22 24 27 30 28 33 32 34 37 39
179 198 207 248 249 167 150 142 219 120 118 119 99 87 80 66 21 9 6 13 14 6 7 9 10 9 9 12 11 13 21 14 16 16 17 22 25 27 28 26 26 29 31 33
206 78 270 31 81 102 79 96 116 134 130 113 113 97 99 61 28 26 19 16 14 8 11 10 12 11 15 14 11 13 15 14 19 16 18 21 19 23 26 22 21 24 25 25
132 55 108 128 137 112 113 111 112 124 123 119 108 94 78 74 34 32 29 21 15 13 2 1 10 13 13 12 13 17 18 15 22 16 21 21 22 23 24 21 17 17 20 19
132 149 121 102 113 121 130 132 132 125 119 114 102 91 73 67 58 43 40 29 23 18 12 357 6 12 13 9 12 18 21 16 21 14 24 20 21 24 26 30 25 18 16 14
166 131 173 165 160 190 149 145 147 141 131 127 124 110 73 71 68 63 57 39 30 24 19 12 8 11 12 10 15 21 28 19 19 16 26 19 16 21 24 24 28 30 16 3